Weather Service Report


966 
ASUS43 KMPX 040210
RWRMN 
WEATHER ROUNDUP FOR MINNESOTA
NATIONAL WEATHER SERVICE TWIN CITIES/CHANHASSEN MN
900 PM CDT TUE MAY 03 2016


NOTE: "FAIR" INDICATES FEW OR NO CLOUDS BELOW 12,000 FEET WITH NO
SIGNIFICANT WEATHER AND/OR OBSTRUCTIONS TO VISIBILITY. N/A MEANS
CURRENT SKY AND/OR WEATHER CONDITIONS ARE NOT AVAILABLE.

MNZ060>063-068>070-040300-
   Twin Cities Metro   
  
CITY           SKY/WX    TMP DP  RH WIND       PRES   REMARKS
TWIN CITIES    CLEAR     64  26  23 N21G30    29.72R                  
ST PAUL        CLEAR     63  28  26 N17       29.72R                  
CRYSTAL        CLEAR     64  24  21 N15G22    29.73R                  
BLAINE         CLEAR     63  27  25 NW14      29.73R                  
EDEN PRAIRIE   CLEAR     65  26  23 N18G26    29.72R                  
SOUTH ST PAUL  CLEAR     64  28  25 N10G18    29.72R                  
LAKE ELMO      FAIR      61  28  29 N14       29.72R                  
$$
MNZ001>005-007-008-013>017-022>024-027-028-040300-
   Northwest Minnesota   
  
CITY           SKY/WX    TMP DP  RH WIND       PRES   REMARKS
BEMIDJI        CLEAR     54  32  43 N9G17     29.89R                  
HALLOCK        CLEAR     54  28  37 N10       29.99R                  
ROSEAU         CLEAR     54  37  54 N9        29.95R                  
WARROAD        CLEAR     54  37  54 N9        29.94R                  
THIEF RVR FALL CLEAR     55  34  44 N13       29.95R                  
CROOKSTON      CLEAR     55  30  38 N17       29.95R                  
FOSSTON        CLEAR     54  30  40 N8        29.92R                  
DETROIT LAKES  CLEAR     55  32  41 N16G22    29.90R                  
MOORHEAD       CLEAR     59  27  29 N17G23    29.92R                  
PARK RAPIDS    CLEAR     58  28  32 N18G25    29.86R                  
MAHNOMEN       FAIR      56  32  40 N13G21    29.90R                  
$$
MNZ006-009>011-018-025>026-040300-
   North Central Minnesota   
  
CITY           SKY/WX    TMP DP  RH WIND       PRES   REMARKS
BAUDETTE       CLEAR     51  30  44 N7        29.92R                  
FLAG ISLAND    CLEAR     54  34  47 N13       29.93R                  
INTL FALLS     CLEAR     50  33  52 NE6       29.90R                  
WASKISH        CLEAR     54  36  50 N7          N/A                   
BIG FORK       CLEAR     54  30  40 N10G16    29.88R                  
LONGVILLE      CLEAR     55  30  38 N8        29.85R                  
GRAND RAPIDS   PTCLDY    55  30  38 N12G20    29.86R                  
CRANE LAKE     CLEAR     48  30  49 N7        29.90R                  
ORR            CLEAR     50  27  40 CALM      29.86R                  
COOK           CLEAR     50  30  46 N6        29.87R                  
WALKER         FAIR      54  32  42 N13       29.87R                  
$$
MNZ012-019>021-037-040300-
   Northeast Minnesota   
  
CITY           SKY/WX    TMP DP  RH WIND       PRES   REMARKS
DULUTH         PTCLDY    54  33  45 N16G25    29.79R                  
ELY            CLEAR     48  30  49 N6        29.85R                  
HIBBING        CLEAR     51  31  46 N14       29.84R                  
EVELETH        CLEAR     52  32  46 N12G21    29.85R                  
DULUTH HARBOR  CLEAR     52  36  54 N20       29.79R                  
TWO HARBORS    CLEAR     57  37  47 N7        29.78R                  
SILVER BAY     CLEAR     54  30  40 N9G18     29.79R                  
GRAND MARAIS     N/A     50  32  50 N9G23     29.81R                  
G MARAIS ARPRT PTCLDY    43  30  61 N12G17    29.81R                  
$$
MNZ029>031-032-039>041-046>048-054>057-064-040300-
   West Central Minnesota   
  
CITY           SKY/WX    TMP DP  RH WIND       PRES   REMARKS
FERGUS FALLS   CLEAR     57  28  33 N8G18     29.87R                  
WHEATON        CLEAR     61  30  31 N13G18    29.91R                  
MORRIS         CLEAR     61  27  27 N18       29.85R                  
ALEXANDRIA     CLEAR     58  26  29 N14       29.85R                  
ELBOW LAKE     FAIR      58  29  32 N17G24    29.87R                  
WADENA         CLEAR     55  30  38 N13       29.85R                  
GLENWOOD       CLEAR     57  27  30 NW13      29.84R                  
APPLETON       CLEAR     63  25  23 N16G22    29.85R                  
BENSON         CLEAR     61  21  21 NE12      29.84R                  
ORTONVILLE     CLEAR     61  28  29 N17       29.87R                  
MADISON        CLEAR     61  28  29 N14G23    29.86R                  
WILLMAR        FAIR      61  30  31 NW18      29.83R                  
$$
MNZ033>034-036-042>043-049>051-058-059-040300-
   Central Minnesota     
  
CITY           SKY/WX    TMP DP  RH WIND       PRES   REMARKS
ST CLOUD       CLEAR     59  25  27 N13G22    29.79R                  
SAUK CENTRE    FAIR      59  27  29 N12       29.83R                  
PAYNESVILLE    CLEAR     60  23  24 N8G17     29.81R                  
AITKIN         CLEAR     57  25  28 N7        29.80R                  
PINE RIVER     CLEAR     57  36  44 N10       29.88R                  
BRAINERD       CLEAR     56  31  38 N15       29.83R                  
STAPLES        CLEAR     55  25  30 N8        29.85R                  
LONG PRAIRIE   FAIR      57  28  33 N13G20    29.83R                  
LITTLE FALLS   CLEAR     59  23  25 N7G16     29.82R                  
LITCHFIELD     CLEAR     63  27  25 N10G20    29.80R                  
BUFFALO        CLEAR     62  25  25 N12G17    29.78R                  
MAPLE LAKE     CLEAR     61  31  31 N15G22    29.79R                  
HUTCHINSON     CLEAR     62  32  32 N12G20    29.79R                  
$$
MNZ037-044-045-052-053-040300-
   East Central Minnesota   
  
CITY           SKY/WX    TMP DP  RH WIND       PRES   REMARKS
PRINCETON      CLEAR     61  27  27 NW13      29.78R                  
MORA           CLEAR     57  28  33 N9        29.79R                  
CAMBRIDGE      CLEAR     63  37  39 NW7       29.74R                  
RUSH CITY      PTCLDY    59  29  32 N10G17    29.75R                  
MOOSE LAKE     PTCLDY    57  32  38 N9        29.77R                  
HINCKLEY       CLOUDY    59  30  33 N12G17    29.77R                  
CLOQUET        CLEAR     55  27  33 N12G22    29.79R                  
MCGREGOR       CLEAR     55  32  41 N7        29.81R                  
$$
MNZ071>073-080-081-089-090-097-098-040300-
   Southwest Minnesota   
  
CITY           SKY/WX    TMP DP  RH WIND       PRES   REMARKS
MONTEVIDEO     CLEAR     61  28  29 N14G23    29.85R                  
GRANITE FALLS  CLEAR     63  31  29 NW14      29.84R                  
CANBY          CLEAR     63  31  30 NW12G21   29.87R                  
MARSHALL       CLEAR     62  29  28 N18G25    29.84R                  
REDWOOD FALLS  CLEAR     63  23  21 N17G26    29.79R                  
OLIVIA         CLEAR     59  28  31 N17       29.80R                  
PIPESTONE      CLEAR     61  23  23 N10G20    29.86R                  
WINDOM         CLEAR     61  27  27 NW18      29.80R                  
WORTHINGTON    CLEAR     58  35  42 N17       29.83R                  
JACKSON        CLEAR     61  27  27 NW17G29   29.80R                  
TRACY          CLEAR     62  31  31 N17G25    29.84R                  
SLAYTON        CLEAR     59  29  31 N16G24    29.85R                  
$$
MNZ065>067-074>077-082>085-091>093-040300-
   South Central Minnesota  
  
CITY           SKY/WX    TMP DP  RH WIND       PRES   REMARKS
MANKATO        CLEAR     64  27  24 NW15G21   29.73R                  
NEW ULM        CLEAR     63  27  25 N20       29.75R                  
ST JAMES       CLEAR     55  27  33 NW14      29.77R                  
FAIRMONT       CLEAR     63  18  17 NW22G28   29.75R                  
GLENCOE        CLEAR     63  32  32 N13G22    29.76R                  
FARIBAULT      CLEAR     64  34  32 N12G18    29.71R                  
OWATONNA       CLEAR     64  30  27 N17       29.70R                  
WASECA         CLEAR     63  30  29 NW16G22   29.72R                  
ALBERT LEA     PTCLDY    64  32  29 NW10      29.70R                  
$$
MNZ078>079-086>088-094>096-040300-
   Southeast Minnesota   
  
CITY           SKY/WX    TMP DP  RH WIND       PRES   REMARKS
ROCHESTER      CLOUDY    57  48  72 N12       29.69R                  
RED WING       PTCLDY    63  32  31 N9G16     29.68R                  
STANTON        CLEAR     64  29  26 N18G24    29.69R                  
DODGE CENTER   MOCLDY    57  43  58 N14G20    29.70R                  
WINONA         CLOUDY    59  43  55 W5        29.66F                  
AUSTIN         PTCLDY    61  43  51 W7        29.67S                  
PRESTON        CLOUDY    57  44  62 NW15G25   29.67F                  
$$
ABBREVIATIONS USED IN REMARKS
   TC - TEMPERATURES IN CELSIUS
  WCI - WIND CHILL INDEX
   HX - HEAT INDEX
  VSB - VISIBILITY 
$$
  

Return to Home page


Western Regional Climate Center, wrcc@dri.edu